World > North America > United States > South Carolina > Ward  

Ward, SC Hourly Weather Updates

Feedback E-mail the Weather

Quick Clicks

Ward, SC Weather Maps

°F °C°F °C
Ward Weather Map
UTC Time: 4/25/2024, 14:13
Your Time:

Ward, SC Regional Weather

Expires:202404251500;;350757
ASUS42 KCAE 251410
RWRCAE
REGIONAL WEATHER ROUNDUP
NATIONAL WEATHER SERVICE COLUMBIA SC
1000 AM EDT THU APR 25 2024

NOTE: "FAIR" INDICATES FEW OR NO CLOUDS BELOW 12,000 FEET WITH NO
SIGNIFICANT WEATHER AND/OR OBSTRUCTIONS TO VISIBILITY.

NOT ALL STATIONS ARE QUALITY CONTROLLED BY THE NATIONAL 
WEATHER SERVICE. USE DATA WITH CAUTION...ESPECIALLY 
DEWPOINT OBSERVATIONS.


SCZ001>059-115-116-135>137-GAZ040-063>065-077-251500-
...UPSTATE SOUTH CAROLINA...
  
CITY           SKY/WX    TMP DP  RH WIND       PRES   REMARKS
ANDERSON       SUNNY     69  45  41 E10       30.19R                  
LIBERTY        SUNNY     67  47  47 E5        30.19R                  
SPARTANBURG    SUNNY     64  41  42 NE7       30.20R                  
GREENVILLE     SUNNY     68  44  42 NE10      30.20R                  
GREENWOOD      SUNNY     65  48  54 E7        30.20R                  
GREER          SUNNY     66  43  43 NE8       30.20R                  
ROCK HILL      SUNNY     65  49  56 NE8       30.19R                  
CHESTER        SUNNY     63  50  63 NE6       30.19S                  
LAURENS        SUNNY     64  46  52 NE6       30.19S                  


...CENTRAL SOUTH CAROLINA...
  
CITY           SKY/WX    TMP DP  RH WIND       PRES   REMARKS
COLUMBIA APT   SUNNY     69  51  52 VRB6      30.15S                  
COLUMBIA OWENS SUNNY     69  46  43 VRB7      30.16S                  
MCENTIRE ANGB  SUNNY     69  47  46 NE9       30.13S                  
ORANGEBURG     SUNNY     74  56  53 NE8       30.15R                  
SUMTER SHAW    SUNNY     70  47  44 NE12      30.14R                  
AIKEN          SUNNY     68  50  52 NE10      30.18R                  
BARNWELL       SUNNY     70  55  60 NE9       30.15S                  
MANNING        SUNNY     68  55  64 NE6       30.15S                  
CAMDEN         SUNNY     68  46  45 N9        30.17S                  
LANCASTER      SUNNY     63  52  67 NE6G13    30.18S                  
WINNSBORO      SUNNY     64  46  52 NE8       30.17S                  


...EASTERN AND COASTAL SOUTH CAROLINA...
  
CITY           SKY/WX    TMP DP  RH WIND       PRES   REMARKS
MYRTLE BEACH   SUNNY     70  60  70 N8        30.14R                  
N MYRTLE BCH   SUNNY     70  59  68 N8        30.13R                  
CONWAY         SUNNY     68  57  68 N7        30.14S                  
MARION           N/A     63  61  94 CALM      30.15S                  
HARTSVILLE     SUNNY     66  52  59 CALM      30.16S                  
FLORENCE       SUNNY     67  55  65 N6        30.15S                  
DARLINGTON     SUNNY     66  53  63 N7        30.16S                  
CHARLESTON APT SUNNY     74  57  55 N8        30.13R                  
MOUNT PLEASANT SUNNY     72  63  73 VRB6      30.12S                  
WALTERBORO     SUNNY     72  55  56 N9        30.15S                  
BEAUFORT       SUNNY     74  59  59 N6        30.14R                  
HILTON HEAD    SUNNY     72  57  60 VRB7      30.14S                  


...EASTERN GEORGIA...
  
CITY           SKY/WX    TMP DP  RH WIND       PRES   REMARKS
AUGUSTA BUSH F SUNNY     69  50  50 NE5       30.15S                  
AUGUSTA DANIEL SUNNY     71  48  43 NE6       30.17R                  
THOMSON        SUNNY     68  51  54 NE7       30.18R                  
WASHINGTON     SUNNY     67  50  53 NE5       30.19R                  
CLAXTON        SUNNY     73  56  56 CALM      30.15R                  
SYLVANIA       SUNNY     73  57  57 CALM      30.15S                  
STATESBORO     SUNNY     72  55  56 CALM      30.15R                  
SAVANNAH       MOSUNNY   73  57  57 CALM      30.14R                  


...SOUTHERN NORTH CAROLINA...
  
CITY           SKY/WX    TMP DP  RH WIND       PRES   REMARKS
CHARLOTTE      SUNNY     66  44  45 NE7       30.19S                  
MONROE         SUNNY     64  47  53 NE12      30.17S                  
WADESBORO      SUNNY     64  50  60 CALM      30.18S                  
ROCKINGHAM     SUNNY     65  51  58 N6        30.16S                  
RUTHERFORDTON  SUNNY     63  45  51 CALM      30.22R                  
ASHEVILLE      SUNNY     59  43  55 VRB3      30.23S                  

$$
  

SKY/WX - Weather  TMP - Temperature  DP - Dew Point  RH - Humidity
WIND - Wind Direction/Speed PRES - Barometric Pressure VSB - Visibility
WCI - Wind Chill Index E13G22 Wind - East Wind 13 mph/Gusts of 22 mph

Trending Headlines

Trending Entertainment Headlines

Ward Radar Loop

Use the map search tool if you want to place a location marker on the radar map...

Ward Quick Facts

National Two Day Weather Forecast


E-mail the Ward Weather Forecast

Voice your opinion or tell us about page issues...